Tracking 19570 objects as of 22-Feb-2019
HD Live streaming from Space Station
objects crossing your sky now

THORAD DELTA 1 DEB

Track THORAD DELTA 1 DEB now!
10-day predictions


NORAD ID: 8159
Int'l Code: 1974-089Z
Perigee: 1,348.8 km
Apogee: 1,482.8 km
Inclination: 101.5 °
Period: 114.0 minutes
Semi major axis: 7786 km
RCS: 0.0957 m2 (small)
Launch date: November 15, 1974
Source: United States (US)
Launch site: AIR FORCE WESTERN TEST RANGE (AFWTR)

Note: This is SATELLITE DEBRIS
aabbcc
Your satellite tracking list
Your tracking list is empty




NASA's NSSDC Master Catalog

Two Line Element Set (TLE):
1  8159U 74089Z   19052.02482972 +.00000683 +00000-0 +39487-2 0  9992
2  8159 101.5382 069.5443 0086054 281.3069 077.8349 12.63472799020659
Source of the keplerian elements: AFSPC